Location: Carrières
(48.9495°N, 2.0407°E)
Time: 11:25:35
(UTC+00:00)

Cosmos 1241 Rocket - Pass Details

Date: 07 October 2023
Orbit: 941 x 1006 km, 65.8° (Epoch: 07 December)

Event Time Altitude Azimuth Distance (km) Brightness Sun altitude
Rises 18:24:41 0° 311° (NW) 3,640 8.4 -11.6°
Reaches altitude 10° 18:28:13 10° 292° (WNW) 2,678 8.1 -12.2°
Maximum altitude 18:31:53 16° 256° (WSW) 2,234 7.5 -12.8°
Drops below altitude 10° 18:35:31 10° 219° (SW) 2,654 7.2 -13.4°
Sets 18:39:02 0° 199° (SSW) 3,590 7.6 -14.0°
